Погода в Слайго

Ирландия     54°16′38″N   8°28′03″W
темп.,
°C
ветер,
м/с
пор.,
м/с
влажн.,
%
обл.,
%
осадки,
мм/ч
давл.,
гПа
погр.,
м
15 августа, пн
пн1501:00+16всв1193100 1.1 100417
04:00+15всв0196100 1.9 100333
07:00+15с3596100 4.4 1003212
10:00+15ссв2292100 0.3 1004146
13:00+15ссз2391100 0.6 1005196
16:00+16ссз588798 0.1 1006459
19:00+16с698323 0.1 1007680
22:00+13с599082 0.0 1009566
16 августа, вт
вт1601:00+14с7107893 0.0 1010935
04:00+14с71075100 0.1 10101097
07:00+13с8127723 0.1 1012937
10:00+14с912652 0.1 10131356
13:00+15с9116015 0.1 10141446
16:00+15с9116110 0.0 10151371
19:00+14с9117028 0.0 10161246
22:00+12с710692 0.0 1019678
17 августа, ср
ср1701:00+11с48759 0.0 1019404
04:00+10ссв358096 0.0 1019254
07:00+10с2378100 0.0 1020199
10:00+13с216596 0.0 1020657
13:00+15зсз2262100 0.0 1019803
16:00+15ссз2262100 0.0 1019542
19:00+12сз1177100 0.0 1019254
22:00+12ю3777100 0.0 1018331
18 августа, чт
чт1801:00+12ююв4990100 0.4 1016401
04:00+13ююв41096100 0.4 1014475
07:00+12ююв3597100 0.6 1014225
10:00+16ю358882 0.0 1013447
13:00+19юз6865100 0.2 10121155
16:00+20юз7107196 0.1 10111125
19:00+17юз4991100 0.8 1010709
22:00+14зюз379086 0.1 1011280
19 августа, пт
пт1901:00+13зюз3792100 0.1 1011395
04:00+11юз36870 0.0 1011207
07:00+11ююз248882 0.1 1012156
10:00+14юз487988 0.1 1012800
13:00+15зюз697557 1.2 10121111
16:00+14зюз610814 1.7 10121054
19:00+15з7107516 2.0 10131120
22:00+12з588739 0.3 1015400